This demonstration page uses our WeatherBlox Daily Observations layout. Learn more.

Left ArrowRight Arrow

41.12389, -100.76542

Hourly Observations for July 5, 2015

Temp ( °F °C ) Dew Point ( °F °C ) Humidity (%) Winds ( mph kmh ) Pressure ( in mb ) Visibility ( mi km ) Precip ( " mm )
12:53 am 00:53 Clear 76 24.4 63 17.2 64 64 ESE 9 15 29.78 1009 10 16 0.00 0.00
1:53 am 01:53 Clear 73 22.8 63 17.2 71 71 E 13 20 29.78 1008 10 16 0.00 0.00
2:53 am 02:53 Clear 74 23.3 63 17.2 69 69 SE 10 17 29.75 1008 10 16 0.00 0.00
3:53 am 03:53 Clear 72 22.2 63 17.2 73 73 SE 7 11 29.76 1008 10 16 0.00 0.00
4:53 am 04:53 Clear 72 22.2 64 17.8 76 76 ESE 10 17 29.75 1007 10 16 0.00 0.00
5:53 am 05:53 Clear 72 22.2 64 17.8 76 76 SSE 9 15 29.74 1007 10 16 0.00 0.00
6:53 am 06:53 Sunny 72 22.2 63 17.2 73 73 ESE 7 11 29.75 1007 10 16 0.00 0.00
7:53 am 07:53 Sunny 74 23.3 63 17.2 69 69 S 5 7 29.75 1007 10 16 0.00 0.00
8:53 am 08:53 Sunny 78 25.6 63 17.2 60 60 SSW 12 19 29.75 1007 10 16 0.00 0.00
9:53 am 09:53 Sunny 82 27.8 64 17.8 55 55 SSW 12 19 29.74 1007 10 16 0.00 0.00
10:53 am 10:53 Sunny 85 29.4 65 18.3 51 51 S 10 17 29.73 1007 10 16 0.00 0.00
11:53 am 11:53 Sunny 87 30.6 66 18.9 50 50 S 9 15 29.72 1007 10 16 0.00 0.00
12:53 pm 12:53 Sunny 91 32.8 66 18.9 44 44 SSE 12 19 29.70 1006 10 16 0.00 0.00
1:53 pm 13:53 Sunny 92 33.3 67 19.4 44 44 S 14 22 29.70 1006 10 16 0.00 0.00
2:53 pm 14:53 Sunny 93 33.9 67 19.4 42 42 SSE 12 19 29.69 1005 10 16 0.00 0.00
3:53 pm 15:53 Sunny 93 33.9 67 19.4 42 42 S 10 17 29.67 1005 10 16 0.00 0.00
4:53 pm 16:53 Sunny 96 35.6 66 18.9 37 37 SE 8 13 29.65 1004 10 16 0.00 0.00
5:53 pm 17:53 Sunny 95 35 67 19.4 40 40 ESE 9 15 29.62 1003 10 16 0.00 0.00
6:53 pm 18:53 Sunny 91 32.8 70 21.1 50 50 E 8 13 29.62 1003 10 16 0.00 0.00
7:53 pm 19:53 Sunny 88 31.1 69 20.6 54 54 E 9 15 29.60 1003 10 16 0.00 0.00
8:50 pm 20:50 Sunny with Nearby Thunderstorms 88 31 61 16 40 40 SW 21 33 29.53 1000 10 16 0.00 0.00
8:53 pm 20:53 Sunny with Nearby Thunderstorms 87 30.6 61 16.1 42 42 WSW 23 37 29.65 1004 10 16 0.00 0.00
9:00 pm 21:00 Sunny with Nearby Thunderstorms 84 29 61 16 45 45 WSW 23 37 29.59 1002 10 16 0.00 0.00
9:41 pm 21:41 Clear 81 27.2 62 16.7 53 53 W 10 17 29.62 1003 10 16 0.00 0.00
9:53 pm 21:53 Mostly Clear 81 27.2 61 16.1 51 51 W 10 17 29.68 1005 10 16 0.00 0.00
10:33 pm 22:33 Partly Cloudy with Nearby Thunderstorms 75 23.9 66 18.9 74 74 E 6 9 29.71 1006 10 16 0.00 0.03
10:48 pm 22:48 Partly Cloudy with Light Rain 75 24 66 19 74 74 ENE 6 9 29.71 1006 10 16 0.00 0.00
10:53 pm 22:53 Partly Cloudy with Light Rain 74 23.3 66 18.9 76 76 NNE 7 11 29.74 1007 10 16 0.00 0.03
11:09 pm 23:09 Mostly Cloudy with Nearby Thunderstorms 73 22.8 67 19.4 81 81 N 5 7 29.71 1006 10 16 0.00 0.03
11:37 pm 23:37 Cloudy with Light Rain 71 21.7 65 18.3 81 81 N 16 26 29.74 1007 10 16 0.00 0.03
11:53 pm 23:53 Cloudy with Light Rain 70 21.1 66 18.9 87 87 N 15 24 29.78 1008 10 16 0.01 0.25

Powered by AerisWeather